#timestamp,LO_Frequency,Hit 
1498215615.8,286047002.6,N
1498215635.7,286046999.9,N
1498215655.5,286047000.3,N
1498215675.3,286047000.9,N
1498215695.2,286047000.4,N
1498215715.0,286047000.9,N
1498215715.9,286047000.9,N
1498215735.7,286047002.5,N
1498215755.6,286047001.7,N
1498215775.4,286047003.7,N
1498215795.3,286047005.3,N
1498215815.1,286047007.3,N
1498215816.0,286047007.3,N
1498215835.8,286047006.3,N
1498215855.7,286047004.1,N
1498215875.5,286047002.9,N
1498215895.3,286047003.8,N
1498215915.2,286047004.2,N
1498215935.0,286047003.6,N
1498215935.9,286047003.6,N
1498215955.8,286047001.7,N
1498215975.6,286047001.4,N
1498215995.4,286047001.3,N
1498216015.3,286047001.6,N
1498216035.1,286047001.6,N
1498216055.8,286047002.3,N
1498216075.7,286047002.5,N
1498216095.5,286046999.8,N
1498216115.4,286047001.0,N
1498216135.2,286047000.4,N
1498216155.0,286047002.4,N
1498216155.9,286047002.4,N
1498216175.8,286047002.8,N
1498216195.6,286047002.4,N
1498216215.5,286047001.0,N
1498216235.3,286047000.1,N
1498216255.1,286047001.2,N
1498216275.9,286046998.6,N
1498216295.7,286047001.0,N
1498216315.5,286047001.1,N
1498216335.4,286047001.2,N
1498216355.2,286047000.1,N
1498216375.0,286047002.8,N
1498216376.0,286047002.8,N
1498216395.8,286047002.2,N
1498216415.6,286047002.1,N
1498216435.5,286047002.6,N
1498216455.3,286047001.1,N
1498216475.1,286047000.8,N
1498216495.9,286047000.5,N
1498216515.7,286047000.7,N
1498216535.6,286047001.2,N
1498216555.4,286047000.8,N
1498216575.2,286047000.8,N
1498216595.1,286047000.9,N
1498216596.0,286047000.9,N
1498216615.8,286047000.9,N
1498216635.6,286046998.4,N
1498216655.5,286047001.2,N
1498216675.3,286046998.2,N
1498216695.2,286047000.6,N
1498216715.9,286047001.2,N
1498216735.7,286046998.5,N
1498216755.6,286046999.8,N
1498216775.4,286047000.2,N
1498216795.2,286047000.0,N
1498216815.1,286046999.8,N
1498216816.0,286046999.8,N
1498216835.8,286047001.1,N
1498216855.7,286047001.2,N
1498216875.5,286046998.1,N
1498216895.3,286046998.2,N
1498216915.2,286046998.6,N
1498216935.0,286046998.3,N
1498216935.9,286046998.3,N
1498216955.7,286046998.5,N
1498216975.6,286046998.1,N
1498216995.4,286046998.2,N
1498217015.3,286046998.4,N
1498217035.1,286046998.9,N
1498217036.0,286046998.9,N
1498217055.8,286046999.1,N
1498217075.7,286046998.1,N
1498217095.5,286046998.3,N
1498217115.4,286046998.8,N
1498217135.2,286047000.8,N
1498217155.0,286046998.5,N
1498217155.9,286047011.9,N
1498217175.8,286047000.7,N
1498217195.6,286046998.5,N
1498217215.4,286046998.5,N
1498217235.3,286046998.1,N
1498217255.1,286046998.4,N
1498217275.9,286046998.4,N
1498217295.7,286046998.5,N
1498217315.5,286046998.1,N
1498217335.4,286046998.1,N
1498217355.2,286046998.1,N
1498217375.0,286046998.8,N
1498217375.9,286046998.8,N
1498217395.8,286046998.6,N
1498217415.6,286046998.1,N
1498217435.5,286047000.8,N
1498217455.3,286047001.0,N
1498217475.1,286047001.1,N
1498217495.9,286046998.6,N
1498217515.7,286047000.8,N
1498217535.5,286046998.7,N
1498217555.4,286046999.1,N
1498217575.2,286046999.6,N
1498217595.1,286046999.1,N
1498217596.0,286046999.1,N
1498217615.8,286046997.0,N
1498217635.6,286046996.8,N
1498217655.5,286046999.2,N
1498217675.3,286046998.5,N
1498217695.1,286046999.4,N
1498217715.9,286046998.6,N
1498217735.7,286046998.8,N
1498217755.6,286046999.4,N
1498217775.4,286046999.4,N
1498217795.2,286046999.1,N
1498217815.1,286046999.4,N
1498217816.0,286046999.4,N
1498217835.8,286046999.4,N
1498217855.7,286046996.7,N
1498217875.5,286046994.9,N
1498217895.3,286046997.9,N
1498217915.2,286046995.1,N
1498217935.0,286046995.2,N
1498217935.9,286046995.2,N
1498217955.8,286046997.6,N
1498217975.6,286046997.7,N
1498217995.4,286046994.9,N
1498218015.3,286046996.1,N
1498218035.1,286046995.7,N
1498218055.8,286046996.3,N
1498218075.7,286046996.0,N
1498218095.5,286046996.2,N
1498218115.4,286046997.3,N
1498218135.2,286046997.7,N
1498218155.0,286046996.8,N
1498218155.9,286046996.8,N
1498218175.8,286046997.3,N
1498218195.6,286046998.0,N
1498218215.4,286046995.0,N
1498218235.3,286046997.7,N
1498218255.1,286046997.7,N
1498218275.9,286046997.3,N
1498218295.7,286046996.7,N
1498218315.5,286046999.4,N
1498218335.4,286046997.6,N
1498218355.2,286046997.7,N
1498218375.0,286046996.6,N
1498218375.9,286046996.6,N
1498218395.8,286046996.5,N
1498218415.6,286046997.2,N
1498218435.5,286046996.6,N
1498218455.3,286046996.7,N
1498218475.1,286046997.9,N
1498218495.9,286046995.3,N
1498218515.7,286046997.0,N
1498218535.6,286046995.8,N
1498218555.4,286046997.9,N
1498218575.2,286046994.1,N
1498218595.1,286046995.7,N
1498218596.0,286046995.7,N
1498218615.8,286046995.2,N
1498218635.6,286046996.1,N
1498218655.5,286046995.5,N
1498218675.3,286046995.7,N
1498218695.2,286046994.9,N
1498218715.9,286046996.2,N
1498218735.7,286046995.9,N
1498218755.6,286046995.4,N
1498218775.4,286046996.1,N
1498218795.2,286046996.2,N
1498218815.1,286046994.9,N
1498218816.0,286046994.9,N
1498218835.8,286046995.5,N
1498218855.7,286046997.6,N
1498218875.5,286046997.9,N
1498218895.3,286046995.0,N
1498218915.2,286046998.0,N
1498218935.0,286046996.9,N
1498218935.9,286046996.9,N
1498218955.8,286046998.0,N
1498218975.6,286046996.1,N
1498218995.4,286046995.2,N
1498219015.3,286046995.1,N
1498219035.1,286046995.3,N
1498219055.8,286046995.4,N
1498219075.7,286046995.3,N
1498219095.5,286046995.8,N
1498219115.4,286046996.3,N
1498219135.2,286046995.9,N
1498219155.0,286046995.7,N
1498219155.9,286046995.7,N
1498219175.8,286046995.5,N
1498219195.6,286046997.9,N
